Flag for Mongolia

Past Weather in Ulaanbaatar, Mongolia — Yesterday and Last 2 Weeks

Now
37 °F

Clear.


Feels Like: 37 °F
Forecast: 61 / 35 °F
Wind: 1 mph from North

Location: Ulan-Bator
Current Time: Sep 23, 2020 at 4:18:58 am
Latest Report: Sep 23, 2020 at 3:00 am
Visibility: 10 mi
Pressure30.01 "Hg(25.56 "Hg at 1298m altitude)
Humidity: 70%
Dew Point: 28 °F
Location of UlaanbaatarLocation

Past Weather in Ulaanbaatar — Graph

°F

Ulaanbaatar Temperature Yesterday

Maximum temperature yesterday: 68 °F (at 4:30 pm)
Minimum temperature yesterday: 27 °F (at 5:00 am)
Average temperature yesterday: 47 °F

High & Low Weather Summary for the Past Weeks

 TemperatureHumidityPressure
High77 °F (Sep 9, 2:30 pm)93% (Sep 14, 2:30 am)30.33 "Hg (Sep 14, 2:30 am)
Low25 °F (Sep 21, 5:00 am)14% (Sep 19, 4:00 pm)29.83 "Hg (Sep 14, 4:30 pm)
Average51 °F58%30.06 "Hg
* Reported Sep 8 2:00 am — Sep 23 2:00 am, Ulaanbaatar. Weather by CustomWeather, © 2020

Note: Actual official high and low records may vary slightly from our data, if they occured in-between our weather recording intervals... More about our weather records

Ulaanbaatar Weather History for the Previous 24 Hours

Scroll right to see more
 ConditionsComfort  
Time TempWeatherWind HumidityBarometerVisibility
2:00 am
Wed, Sep 23
34 °FClear.3 mph75%29.98 "Hg10 mi
1:00 am34 °FClear.1 mph81%29.98 "Hg10 mi
12:00 am34 °FClear.1 mph81%29.98 "Hg10 mi
11:30 pm
Tue, Sep 22
37 °FClear.1 mph70%29.98 "Hg10 mi
11:00 pm41 °FClear.1 mph61%29.98 "Hg10 mi
10:30 pm39 °FClear.1 mph61%29.98 "Hg10 mi
10:00 pm41 °FClear.No wind61%29.95 "Hg10 mi
9:30 pm46 °FClear.3 mph50%29.95 "Hg10 mi
9:00 pm43 °FClear.6 mph57%29.95 "Hg10 mi
8:30 pm45 °FClear.3 mph53%29.95 "Hg10 mi
8:00 pm52 °FClear.3 mph35%29.95 "Hg10 mi
7:30 pm55 °FSunny.1 mph33%29.95 "Hg10 mi
7:00 pm59 °FSunny.6 mph27%29.95 "Hg10 mi
6:30 pm63 °FSunny.3 mph27%29.95 "Hg10 mi
6:00 pm64 °FSunny.6 mph26%29.95 "Hg10 mi
5:30 pm66 °FPassing clouds.8 mph19%29.95 "HgN/A
5:00 pm68 °FPassing clouds.3 mph21%29.95 "HgN/A
4:30 pm68 °FPassing clouds.8 mph20%29.95 "HgN/A
4:00 pm66 °FPassing clouds.10 mph22%29.98 "HgN/A
3:30 pm66 °FPassing clouds.10 mph22%29.98 "HgN/A
3:00 pm64 °FPassing clouds.10 mph24%29.98 "HgN/A
2:30 pm64 °FPassing clouds.8 mph24%30.01 "HgN/A
2:00 pm63 °FPassing clouds.8 mph25%30.01 "HgN/A
1:30 pm63 °FPassing clouds.8 mph25%30.04 "HgN/A
1:00 pm61 °FPassing clouds.8 mph29%30.04 "HgN/A
12:30 pm59 °FSunny.8 mph29%30.07 "Hg10 mi
12:00 pm59 °FSunny.6 mph31%30.07 "Hg10 mi
11:30 am57 °FSunny.3 mph31%30.07 "Hg10 mi
11:00 am52 °FSunny.1 mph47%30.09 "Hg10 mi
10:30 am48 °FSunny.1 mph54%30.09 "Hg10 mi
10:00 am46 °FSunny.1 mph53%30.12 "Hg10 mi
9:30 am43 °FSunny.1 mph66%30.12 "Hg10 mi
9:00 am39 °FSunny.No wind70%30.12 "Hg10 mi
8:30 am37 °FSunny.No wind75%30.12 "Hg10 mi
8:00 am34 °FSunny.1 mph87%30.12 "Hg10 mi
7:30 am28 °FClear.1 mph93%30.15 "Hg10 mi
7:00 am28 °FClear.1 mph86%30.15 "Hg10 mi
6:30 am27 °FClear.1 mph86%30.15 "Hg10 mi
6:00 am27 °FClear.1 mph93%30.15 "Hg10 mi
5:30 am27 °FClear.No wind93%30.15 "Hg10 mi
5:00 am27 °FClear.1 mph86%30.15 "Hg10 mi
4:00 am28 °FClear.1 mph86%30.15 "Hg10 mi
Weather by CustomWeather, © 2020

See weather overview